Location: Hanhofen
(49.3148°N, 8.3458°E)
Time: 11:09:36
(UTC+00:00)

Daily predictions for brighter satellites

Satellite Brightness Start Highest point End
(mag) Time Altitude Azimuth Time Altitude Azimuth Time Altitude Azimuth
Okean O Rocket 2.2 19:34:58 10° SE 19:39:00 41° ENE 19:43:03 10° N
Cosmos 2100 Rocket 4.3 19:34:23 10° SSW 19:40:37 75° W 19:46:59 10° N
Meteor 1-27 4.2 19:36:27 10° S 19:42:03 70° E 19:47:37 10° NNE
Cosmos 2228 3.2 19:38:27 10° SSE 19:42:24 49° E 19:46:22 10° NNE
NOSS 3-4 (A) 4.5 19:36:44 10° NW 19:42:52 44° NE 19:50:02 10° ESE
SPOT 5 4.2 19:39:02 10° SSW 19:42:59 34° W 19:47:03 10° NNW
SL-24 R/B 4.3 19:38:58 10° NNE 19:43:15 85° WNW 19:48:00 10° SSW
SL-16 R/B 2.9 19:37:57 10° NNW 19:43:21 42° NE 19:48:42 10° ESE
USA 186 2.6 19:41:16 10° SE 19:43:38 26° ENE 19:46:01 10° N
Okean 1 Rocket 4.2 19:44:22 10° SSW 19:48:37 49° WNW 19:52:57 10° N
Cosmos 2233 Rocket 4.1 19:45:03 10° S 19:51:07 61° E 19:57:11 10° NNE
Cosmos 2084 Rocket 3.9 19:47:01 10° NW 19:51:08 57° SW 19:55:17 10° SSE
ATLAS 2AS CENTAUR R/B 4.4 19:45:48 10° W 19:52:09 37° NNW 19:58:25 10° NE
SKYMED 3 4.3 19:53:24 10° NNE 19:57:22 76° ESE 20:01:20 10° S
CZ-2C R/B 4.4 19:56:49 10° ENE 19:57:23 10° ENE 19:57:56 10° NE
COSMOS 2406 3.6 19:52:55 10° S 19:58:17 42° ESE 20:03:38 10° NE
Cosmos 1980 Rocket 3.3 19:53:33 10° NW 19:58:54 42° WSW 20:04:12 10° S
Okean-O 2.7 19:55:27 10° SSE 19:59:46 64° ENE 20:04:07 10° N
Cosmos 1782 2.5 19:56:18 10° S 19:59:48 84° W 20:03:21 10° N
CZ-4 R/B 2.9 19:57:03 10° SSW 20:00:16 30° W 20:03:30 10° NNW
MetOp-B 4.5 19:55:07 10° S 20:00:26 68° WSW 20:05:47 10° NNW
Ariane Rocket 4.0 19:58:02 10° SE 20:02:29 33° ENE 20:06:59 10° N
Cosmos 1933 4.3 20:02:11 11° SE 20:05:09 26° E 20:08:22 10° NNE
SPOT 3 Rocket 4.1 20:01:10 11° SE 20:05:53 43° ENE 20:10:44 10° N
Cosmos 1758 Rocket 3.9 20:02:17 10° N 20:06:36 51° ENE 20:10:37 12° SSE
Spot 2 Rocket 3.5 20:02:43 10° SSE 20:07:44 85° ENE 20:12:48 10° NNW
Cosmos 1725 Rocket 4.3 20:03:36 10° SSW 20:09:50 73° W 20:16:06 10° N
Cosmos 2333 Rocket 2.5 20:05:38 10° NNW 20:11:16 58° NE 20:16:16 13° SE
ERS-1 Rocket 4.0 20:09:09 10° S 20:13:54 43° W 20:18:42 10° NNW
Tsikada Rocket 4.1 20:12:14 10° NNW 20:18:25 79° W 20:24:33 10° S
USA 245 4.4 20:19:40 12° SSE 20:25:02 68° ENE 20:30:33 10° N
Cosmos 2360 Rocket 2.8 20:19:41 10° NNW 20:25:09 45° NE 20:29:39 15° ESE
Cosmos 1461 2.7 20:22:37 10° SSW 20:26:12 49° ESE 20:29:47 10° NE
CZ-4B R/B 4.2 20:21:35 10° S 20:26:59 45° W 20:32:21 10° NNW
CZ-4B R/B 3.6 20:25:36 16° SE 20:29:19 54° ENE 20:34:03 10° N
CZ-4C R/B 3.7 20:26:03 10° W 20:30:15 35° NNW 20:35:36 10° NE
Cosmos 1602 Rocket 3.8 20:26:35 10° N 20:30:49 52° ENE 20:33:49 18° SSE
Cosmos 1992 Rocket 4.0 20:25:38 10° SSW 20:30:51 87° WNW 20:36:05 10° NNE
YAOGAN 11 4.1 20:29:37 10° NNE 20:34:04 88° WNW 20:38:32 10° SSW
ISS -3.1 20:33:54 10° W 20:37:12 56° N 20:40:31 10° ENE
Cosmos 1777 Rocket 4.4 20:32:22 10° NNW 20:37:31 53° ENE 20:41:09 19° SE
Cosmos 2219 Rocket 3.1 20:33:14 10° NNW 20:38:30 38° NE 20:42:48 15° ESE
Cosmos 220 Rocket 4.1 20:36:01 13° S 20:39:26 47° ESE 20:43:23 10° NE
Meteor 1-25 Rocket 4.3 20:33:48 10° N 20:39:29 70° ENE 20:43:46 17° SSE
Cosmos 1437 Rocket 2.4 20:36:40 14° S 20:39:40 69° E 20:43:16 10° NNE
USA 290 3.7 20:39:45 19° ESE 20:39:47 19° ESE 20:42:07 10° NE
SL-08 R/B 4.2 20:39:37 10° N 20:44:18 51° WNW 20:48:53 10° SW
Cosmos 1503 Rocket 4.5 20:40:59 10° NNW 20:46:01 48° ENE 20:49:23 20° SE
DEBRIS 3.6 20:43:44 10° W 20:46:57 90° NNE 20:57:14 10° E
Cosmos 1626 Rocket 4.0 20:42:52 10° NNW 20:47:10 58° W 20:51:00 13° S
Cosmos 2098 Rocket 3.4 20:44:23 18° SSE 20:47:35 48° E 20:51:37 10° NNE
NOSS 3-3 (A) 4.2 20:44:14 10° SW 20:49:29 67° NW 20:55:51 10° NE
Terra 3.9 20:48:07 10° SW 20:51:44 22° W 20:55:23 10° NW
Cosmos 2151 3.2 20:51:06 10° NNW 20:55:11 63° W 20:58:09 18° S
Cosmos 2322 Rocket 2.2 20:51:22 10° NNW 20:57:04 78° ENE 21:00:46 23° SE
Cosmos 1486 Rocket 4.0 20:51:54 10° NNW 20:57:12 83° ENE 21:00:35 23° SSE
Cosmos 1513 Rocket 4.4 20:51:10 10° S 20:57:17 81° E 21:03:27 10° N
IRS-1C Rocket 4.1 20:53:40 19° SSE 20:57:29 89° ENE 21:02:47 10° NNW
Cosmos 1464 Rocket 4.1 20:53:50 17° SSE 20:58:28 59° E 21:04:32 10° NNE
Cosmos 2082 Rocket 3.6 20:56:05 10° WSW 21:01:27 41° NW 21:06:50 10° NNE
USA 306 3.7 21:01:17 10° WNW 21:03:30 22° NNW 21:04:50 12° NE
Cosmos 1606 Rocket 3.7 21:03:17 26° SSE 21:05:30 54° E 21:09:43 10° NNE
Meteor 2-10 4.3 20:59:52 10° N 21:05:38 75° ENE 21:09:14 24° SSE
CZ-4B R/B 3.3 21:09:42 22° SSW 21:11:32 43° W 21:14:52 10° NNW
Cosmos 1766 4.3 21:09:51 10° NNE 21:12:29 23° ENE 21:13:02 21° E
USA 186 4.1 21:11:30 10° SW 21:13:03 14° W 21:14:37 10° WNW
Cosmos 1726 Rocket 3.7 21:12:34 32° SE 21:13:59 46° E 21:17:52 10° NNE
Cosmos 2237 Rocket 4.5 21:10:52 10° N 21:14:28 17° NE 21:18:03 10° ENE
Cosmos 1428 Rocket 4.5 21:09:05 10° N 21:15:20 75° ENE 21:19:09 25° SSE
Okean O Rocket 3.5 21:11:54 10° SSW 21:15:21 23° W 21:18:49 10° NW
Cosmos 540 Rocket 3.9 21:13:17 27° SSE 21:15:31 41° ESE 21:20:21 10° NE
Cosmos 1072 Rocket 4.5 21:11:32 16° S 21:16:40 84° E 21:23:03 10° N
Cosmos 1805 3.2 21:17:58 10° NNW 21:21:11 54° W 21:22:21 33° SSW
Cosmos 2278 4.2 21:17:27 10° NW 21:22:59 53° WSW 21:26:23 23° S
Meteor 1-5 Rocket 4.4 21:19:54 10° NNW 21:25:39 74° W 21:29:21 24° S
COSMOS 2428 4.0 21:21:11 10° NNW 21:26:17 32° NE 21:30:13 15° ESE
SL-16 R/B 3.2 21:22:10 10° NW 21:27:24 39° WSW 21:30:55 19° SSW
CZ-2C R/B 2.7 21:27:14 36° SW 21:27:45 42° W 21:30:26 10° NNW
Okean 1-7 Rocket 3.8 21:23:52 10° NNW 21:28:19 69° W 21:30:35 28° S
Geosat 4.3 21:28:34 10° NE 21:33:23 45° ESE 21:35:08 32° SSE
NOSS 3-4 (A) 4.0 21:27:26 10° NW 21:34:06 63° SW 21:38:39 26° SSE
NOSS 3-4 (C) 4.0 21:28:05 10° NW 21:34:46 64° SW 21:39:17 26° SSE
Cosmos-2242 3.4 21:34:03 37° SE 21:34:58 44° E 21:38:54 10° NNE
Cosmos 2034 Rocket 4.0 21:32:54 25° S 21:36:51 75° E 21:43:12 10° NNE
Ariane Rocket 4.0 21:38:07 19° SSW 21:41:17 40° W 21:46:03 10° NNW
USA 234 4.3 21:42:25 10° ENE 21:47:11 23° ESE 21:47:11 23° ESE
TSX-5 4.2 21:46:34 10° NNW 21:49:32 38° NE 21:50:06 34° E
Nadezhda 4 Rocket 4.4 21:46:29 10° NNW 21:52:26 55° W 21:56:13 23° SSW
Cosmos 2333 Rocket 3.7 21:50:29 10° NW 21:55:13 27° WSW 21:58:17 17° SSW
Helios 1B rocket 2.2 21:55:11 50° ESE 21:55:37 55° ENE 21:59:04 10° N
Cosmos 1763 Rocket 3.5 21:53:12 23° SSW 21:56:36 84° WNW 22:01:54 10° NNE
Cosmos 1825 Rocket 4.5 21:53:21 10° NNW 21:57:26 41° W 21:59:17 27° SW
Okean 1 3.9 21:56:18 30° SW 21:57:39 45° WNW 22:01:08 10° N
Cosmos 1470 3.5 21:55:09 10° N 21:58:08 30° ENE 21:58:12 30° ENE
Cosmos 1536 2.6 21:55:02 10° N 21:58:42 68° ENE 21:59:12 59° SE
Cosmos 1707 2.3 21:59:51 60° NNE 21:59:51 60° NNE 22:02:16 10° N
Cosmos 2221 3.7 21:59:07 25° E 21:59:26 25° E 22:02:53 10° NNE
Cosmos 1898 Rocket 4.1 21:54:46 10° NNW 21:59:49 49° ENE 22:02:03 30° ESE
Cosmos 1634 Rocket 4.0 21:57:45 33° SSE 22:00:32 65° E 22:06:41 10° NNE
CSL-04 DEB 4.3 22:01:35 51° ESE 22:02:04 56° ENE 22:05:38 10° N
Cosmos 1833 4.2 21:57:58 19° SSW 22:02:07 85° WNW 22:07:48 10° NNE
Cosmos 2297 Rocket 3.8 22:01:44 17° ESE 22:02:10 17° E 22:05:43 10° ENE
Cosmos 1953 Rocket 3.8 21:59:18 10° NNW 22:03:36 60° W 22:04:56 40° SSW
CZ-2C R/B 4.4 21:59:28 10° NNE 22:03:37 37° E 22:04:14 35° ESE
Cosmos 44 3.4 21:59:30 10° NW 22:04:57 86° SW 22:06:56 40° SE
Cosmos 990 Rocket 4.3 21:59:56 10° NNW 22:05:00 58° WSW 22:06:54 36° SSW
Cosmos 2360 Rocket 3.2 22:03:54 10° NW 22:09:01 36° WSW 22:11:23 25° SSW
Meteor 2-6 Rocket 4.5 22:08:15 36° SSE 22:10:32 59° E 22:16:23 10° NNE
Cosmos 2322 3.9 22:05:35 10° NNW 22:11:16 66° ENE 22:13:46 34° SE
USA 290 4.1 22:12:10 18° WSW 22:13:44 27° WNW 22:16:30 10° N
ISS -3.8 22:10:51 10° WNW 22:14:12 78° NNE 22:14:19 77° NE
BREEZE-M DEB (TANK) 4.1 22:13:04 10° W 22:13:11 11° W 22:13:11 11° W
Cosmos 2026 Rocket 4.3 22:08:48 10° NNW 22:15:07 65° W 22:18:17 31° SSW
Cosmos 2058 Rocket 3.0 22:14:25 48° SSW 22:15:36 83° W 22:19:58 10° N
Helios 1A 3.1 22:17:34 10° N 22:21:28 63° WNW 22:22:30 44° SW
Cosmos 2219 Rocket 2.8 22:17:10 10° NW 22:22:31 44° WSW 22:24:29 32° SSW
KORONAS-FOTON 3.4 22:25:06 75° W 22:25:07 75° W 22:28:31 10° N
Cosmos 1975 2.9 22:21:37 10° N 22:25:13 51° ENE 22:25:24 51° E
Cosmos 841 Rocket 3.8 22:28:15 43° SE 22:29:18 50° ESE 22:34:21 10° NNE
RESURS DK-1 2.2 22:28:07 10° NNW 22:32:07 79° ENE 22:32:35 67° ESE
ARIANE 5 R/B 2.6 22:32:16 54° SE 22:33:13 77° ENE 22:37:42 10° NNW
ALOS 2 2.7 22:33:58 51° SE 22:34:53 66° ENE 22:39:16 10° N
Cosmos 2322 Rocket 4.0 22:36:31 10° NW 22:40:26 20° W 22:42:34 16° SW
Cosmos 1271 Rocket 2.5 22:46:13 68° NW 22:46:13 68° NW 22:49:27 10° N
Cosmos 372 Rocket 4.2 22:41:43 10° NNW 22:46:43 56° WSW 22:47:53 45° SSW
SL-16 R/B 4.3 22:42:46 10° N 22:47:06 22° NE 22:51:25 10° E
Cosmos 1842 3.4 22:47:39 49° WNW 22:47:39 49° WNW 22:50:29 10° N
Lacrosse 4 Rocket 3.3 22:51:57 17° E 22:51:57 17° E 22:53:49 10° ENE
Spot 4 3.8 22:51:57 53° SSW 22:53:00 72° WSW 22:57:48 10° NNW
Meteor 2-9 Rocket 4.1 22:48:54 10° NNW 22:54:18 74° W 22:55:56 46° S
PSLV R/B 3.5 22:51:12 10° NNE 22:55:29 67° ESE 22:55:59 60° SE
Cosmos 2237 Rocket 2.5 22:54:05 10° NNW 22:59:44 61° ENE 23:02:17 32° SE
CZ-2C R/B 3.2 22:58:57 32° ESE 23:01:01 48° ENE 23:06:00 10° N
BREEZE-M DEB (TANK) 4.1 22:46:08 10° WSW 23:01:37 88° SSE 23:05:25 10° ENE
Cosmos 1980 3.8 22:58:15 10° NNW 23:03:54 70° ENE 23:06:13 37° SE
ARGOS Delta rocket 4.0 22:59:44 10° N 23:04:55 85° WNW 23:06:31 47° SSW
Cosmos 858 Rocket 4.4 23:00:04 10° NNW 23:05:17 84° ENE 23:06:42 49° SSE
Cosmos 2142 Rocket 4.5 23:05:17 39° SSW 23:07:46 81° W 23:14:02 10° N
Cosmos 1937 Rocket 3.5 23:03:15 10° NNW 23:08:22 67° WSW 23:09:27 52° SSW
Cosmos 2180 Rocket 4.5 23:06:36 40° SSW 23:09:04 83° W 23:15:27 10° N
COSMOS 2428 2.9 23:05:15 10° NW 23:10:49 54° WSW 23:12:11 44° SSW
Cosmos 2227 Rocket 3.5 23:11:04 24° ESE 23:12:01 25° ESE 23:16:35 10° NE
Meteor 2-4 Rocket 4.2 23:11:49 37° SE 23:13:14 45° E 23:18:28 10° NNE
NOSS 0 Rocket 3.9 23:07:20 10° NW 23:13:29 68° WSW 23:15:26 44° S
Meteor 1-11 Rocket 3.7 23:08:26 10° NNW 23:14:07 78° W 23:15:45 47° S
MetOp-A 3.7 23:18:10 55° SSE 23:19:17 90° ENE 23:24:00 10° NNW
Meteor 1-10 Rocket 4.3 23:17:23 43° SSW 23:19:27 83° WNW 23:25:27 10° N
Cosmos 2263 Rocket 3.8 23:20:54 18° ESE 23:22:00 19° E 23:25:51 10° NE
Cosmos 1812 Rocket 3.9 23:25:18 49° WSW 23:26:06 57° WNW 23:30:28 10° N
Cosmos 1238 Rocket 3.0 23:25:54 58° ESE 23:26:08 59° E 23:30:23 10° NNE
USA 234 3.2 23:24:37 10° ENE 23:31:10 70° SE 23:34:30 31° SW
SeaSat 1 3.1 23:28:37 25° ESE 23:31:15 51° NE 23:36:00 10° NNW
CZ-2C R/B 3.3 23:28:03 10° NNE 23:33:51 85° ESE 23:35:48 45° S
Meteor 1-27 Rocket 3.7 23:32:34 46° S 23:34:27 86° E 23:40:14 10° NNE
ACS3 Solar Sail 2.7 23:29:37 10° NNE 23:35:04 35° E 23:37:20 26° SE
Cosmos 2221 3.6 23:35:23 30° W 23:36:18 33° WNW 23:40:08 10° N
ATLAS 2AS CENTAUR R/B 4.3 23:31:49 10° NW 23:37:55 34° NNE 23:43:59 10° E
Meteor 2-20 Rocket 4.2 23:37:28 46° S 23:39:17 81° E 23:45:01 10° NNE
BlueWalker 3 3.5 23:41:18 22° E 23:41:18 22° E 23:42:50 10° ENE
Cosmos 2297 Rocket 2.1 23:43:29 43° SSW 23:45:26 86° WNW 23:51:08 10° NNE
Okean 3 Rocket 4.4 23:43:36 10° N 23:47:58 46° ENE 23:49:21 35° ESE
Landsat 5 3.3 23:47:17 10° NNE 23:51:22 66° ESE 23:51:40 63° SE
Cosmos 1842 Rocket 3.6 23:53:33 56° SE 23:54:14 66° E 23:58:37 10° NNE
GP-B 3.9 23:51:12 10° NNW 23:55:16 39° W 23:56:01 36° WSW
